Location: Newark
(45.2500°N, 7.5833°E)
Time: 19:04:18
(UTC+00:00)

Vanguard 2 Rocket - Visible Passes

Search period start: 26 January 2020 00:00
Search period end: 05 February 2020 00:00
Orbit: 554 x 3326 km, 32.9° (Epoch: 26 January)

Date Brightness Start Highest point End Pass type
(mag) Time Alt. Az. Time Alt. Az. Time Alt. Az.
26 Jan 8.4 04:28:57 15° S 04:30:25 17° SSE 04:33:55 10° ESE visible
27 Jan 8.5 05:39:25 10° SW 05:43:17 24° S 05:48:38 10° ESE visible
28 Jan 8.1 04:42:39 16° SSW 04:44:11 19° SSE 04:48:03 10° ESE visible
29 Jan 8.8 03:46:35 12° SE 03:46:35 12° SE 03:47:35 10° SE visible
29 Jan 8.5 05:53:32 10° SW 05:57:12 22° S 06:02:08 10° SE visible
30 Jan 8.1 04:56:18 16° SSW 04:58:03 19° S 05:01:52 10° SE visible
31 Jan 8.5 04:00:11 15° SSE 04:00:11 15° SSE 04:01:49 10° SE visible
31 Jan 8.5 06:07:57 10° SW 06:11:09 18° S 06:15:14 10° SE visible
01 Feb 8.1 05:09:54 13° SW 05:11:58 17° S 05:15:21 10° SE visible
02 Feb 8.3 04:13:47 15° SSE 04:13:47 15° SSE 04:15:40 10° SE visible
03 Feb 8.3 05:23:51 10° SW 05:25:54 13° S 05:28:15 10° SSE visible
04 Feb 8.3 04:27:22 14° S 04:27:22 14° S 04:29:04 10° SSE visible
